Showing default

INSAT 3D, 39216

Orbit data source: Space-Track

INSAT 3D, 39216 is a payload satellite owned by ISRO (IN) in GEO that was launched on Thu, 25 Jul 2013 UTC via an ARIANE 5ECA launch vehicle from the French Guiana (FRGUI). Payload-class satellites include a variety of spacecraft equipped with specific instruments for various scientific and technological missions. These include communications satellites like Starlink; space stations such as the ISS; scientific satellites like the Hubble; Earth observation satellites from companies like Planet Labs, Umbra, and HawkEye 360; GPS; miniature CubeSats for education and research; and military/defense satellites.

Not visible in the next 10 days
Identifier
39216, 2013-038B
Orbit
GEO
Country
Flag of ININ / IND
Related business
Manufacturer
ISRO
Mission
Operational Civil Weather
Bus & Motor
I2K, ISRO LAM
Mass
2,090 kg wet, 935 kg dry
Launch date (UTC)
2013-07-25 (12 years ago)
Launch vehicle
ARIANE 5ECA
Launch site
French Guiana (FRGUI)
Object type
Payload
Rocket body
Debris
Shape & HBR
Box + 2 Pan, 4.8 m
Radar Cross Section
8.526 m², Large (>1 m²)

Expand to show TLE details & history
Last TLE update: 15 hours ago

TLE from 15 hours ago
0 INSAT 3D
1 39216U 13038B   25245.97794317 -.00000339  00000-0  00000-0 0  9997
2 39216   1.1774  86.3998 0000981 108.3254 269.2046  1.00267718 44208
Epoch: 2025-09-02T23:28Z
TLE epoch observation values (Epoch: 2025-09-02T23:28:14.289Z)
Latitude
0.34486°
Longitude
129.4869°
Altitude
35,787.222 km
Speed
3.075 km/s
True Right ascension
06h 55m 37s
True Declination
0° 20' 40"
Sunlit
Object was in daylight at epoch
Visualization orbit readout
Latitude
Unknown
Longitude
Unknown
Altitude
Unknown
Speed
Unknown
Apparent Right ascension
Unknown
Apparent Declination
Unknown
Sunlit
N/A
Visualization observer readout
Local Sidereal Time
06:22:58
Azimuth
Unknown
Elevation
Unknown
Doppler factor
Unknown
Orbital elements
Apogee altitude
35,792.941 km
Perigee altitude
35,784.668 km
Semi-major axis
42,166.942 km
Eccentricity
0.0001
Inclination
1.1774°
RAAN
86.3998°
Arg. of periapsis
108.3254°
True anomaly
269.19336°
Mean anomaly
269.2046°
Eccentric anomaly
269.19898°
Mean motion
0.25066 °/min
Orbital period
1,436.21 mins
BSTAR
0
Loading maneuver chart data...
Computing Atmospheric mass density...
Loading historical data...
Loading historical data...
Loading historical data...
Loading historical data...
Loading historical data...
Loading historical data...
Loading historical data...
Other satellites on launch #38 in the year 2013 (2013-07-25 UTC)

Documentation

Showing up to 5 results
|